Location: Newark
(41.4073°N, 2.1486°E)
Time: 22:46:38
(UTC+00:00)

Starlink Launch 2 trailer - Visible Passes

Search period start: 06 December 2019 00:00
Search period end: 16 December 2019 00:00
Orbit: 279 x 281 km, 53.0° (Epoch: 13 November)

Date Brightness Start Highest point End Pass type
(mag) Time Alt. Az. Time Alt. Az. Time Alt. Az.
06 Dec 5.3 05:17:39 10° NNE 05:17:39 10° NNE 05:17:47 10° NNE visible
07 Dec 4.9 05:19:37 14° NNE 05:19:37 14° NNE 05:20:53 10° ENE visible
08 Dec 4.3 05:21:39 22° NE 05:21:39 22° NE 05:23:29 10° E visible
09 Dec 3.5 05:23:44 37° NE 05:23:44 37° NE 05:25:48 10° ESE visible
10 Dec 2.9 05:25:53 55° SE 05:25:53 55° SE 05:27:53 10° SE visible
11 Dec 3.8 05:28:06 28° S 05:28:06 28° S 05:29:38 10° SSE visible
12 Dec 4.9 05:30:25 13° S 05:30:25 13° S 05:30:56 10° S visible
